TimeAKST,TemperatureF,Dew PointF,Humidity,Sea Level PressureIn,VisibilityMPH,Wind Direction,Wind SpeedMPH,Gust SpeedMPH,PrecipitationIn,Events,Conditions,WindDirDegrees,DateUTC
12:26 AM,1.4,-4.0,78,30.10,0.8,WNW,16.1,32.2,0.00,Snow,Light Snow,290,2013-01-28 09:26:00
12:54 AM,1.9,-4.0,76,30.12,0.5,WNW,24.2,36.8,0.00,Snow,Snow,300,2013-01-28 09:54:00
1:54 AM,1.9,-5.1,72,30.15,0.8,WNW,26.5,34.5,0.00,Snow,Light Snow,290,2013-01-28 10:54:00
2:11 AM,1.4,-7.6,66,30.16,1.5,WNW,19.6,39.1,0.00,Snow,Light Snow,290,2013-01-28 11:11:00
2:54 AM,1.9,-9.0,60,30.19,2.5,WNW,19.6,35.7,0.00,Snow,Light Snow,300,2013-01-28 11:54:00
3:19 AM,1.4,-11.2,56,30.19,4.0,WNW,21.9,36.8,0.00,Snow,Blowing Snow,300,2013-01-28 12:19:00
3:54 AM,1.9,-13.0,50,30.24,9.0,NW,16.1,32.2,0.00,,Overcast,310,2013-01-28 12:54:00
4:54 AM,1.0,-13.0,52,30.27,7.0,West,13.8,32.2,N/A,,Overcast,280,2013-01-28 13:54:00
5:54 AM,-0.0,-14.1,52,30.30,10.0,West,20.7,27.6,N/A,,Overcast,280,2013-01-28 14:54:00
6:54 AM,-0.9,-16.1,49,30.35,10.0,WNW,10.4,24.2,N/A,,Scattered Clouds,300,2013-01-28 15:54:00
7:54 AM,-2.0,-17.0,49,30.38,10.0,WNW,11.5,20.7,N/A,,Clear,300,2013-01-28 16:54:00
8:54 AM,-2.0,-18.0,47,30.43,10.0,NW,10.4,23.0,N/A,,Clear,310,2013-01-28 17:54:00
9:54 AM,-0.9,-18.9,42,30.43,9.0,WNW,24.2,31.1,N/A,,Clear,290,2013-01-28 18:54:00
10:54 AM,-0.0,-17.0,45,30.46,10.0,WNW,24.2,32.2,N/A,,Clear,290,2013-01-28 19:54:00
11:54 AM,-0.0,-17.0,45,30.48,10.0,WNW,23.0,35.7,N/A,,Clear,290,2013-01-28 20:54:00
12:54 PM,1.0,-18.0,41,30.48,10.0,WNW,20.7,33.4,N/A,,Clear,300,2013-01-28 21:54:00
1:54 PM,-0.0,-17.0,45,30.49,10.0,West,21.9,32.2,N/A,,Clear,280,2013-01-28 22:54:00
2:54 PM,-0.0,-18.0,43,30.51,10.0,West,18.4,29.9,N/A,,Clear,280,2013-01-28 23:54:00
3:54 PM,-0.0,-18.9,41,30.52,9.0,WNW,15.0,28.8,N/A,,Clear,300,2013-01-29 00:54:00
4:54 PM,-0.0,-17.0,45,30.53,10.0,WNW,10.4,18.4,N/A,,Clear,290,2013-01-29 01:54:00
5:54 PM,-0.9,-18.0,44,30.53,10.0,NNW,8.1,16.1,N/A,,Clear,330,2013-01-29 02:54:00
6:54 PM,-0.0,-18.0,43,30.52,10.0,Variable,6.9,-,N/A,,Clear,0,2013-01-29 03:54:00
7:54 PM,-0.9,-18.0,44,30.51,10.0,NW,9.2,21.9,N/A,,Clear,310,2013-01-29 04:54:00
8:54 PM,-0.9,-16.1,49,30.48,10.0,NW,8.1,-,N/A,,Clear,310,2013-01-29 05:54:00
9:54 PM,-0.0,-16.1,47,30.45,10.0,NW,10.4,18.4,N/A,,Mostly Cloudy,310,2013-01-29 06:54:00
10:54 PM,-0.0,-17.0,45,30.42,10.0,WNW,13.8,-,N/A,,Overcast,300,2013-01-29 07:54:00
11:54 PM,-0.0,-16.1,47,30.39,10.0,WNW,10.4,20.7,N/A,,Overcast,300,2013-01-29 08:54:00